カタログに戻る

COSMOS 1428

運用中軍事PO
NORAD 13757·PAYLOAD·🇷🇺 Russia

打ち上げ Jan 12, 1983 から Plesetsk Cosmodrome

Loading…

次のパス (今後24時間)

TLE

最新Source: Space-Track

元期: Sep 14, 2026, 23:33 UTC

1 13757U 83001A   26257.98183323  .00000056  00000-0  41132-4 0  9990
2 13757  82.9158 334.7024 0034378 353.9632 187.9894 13.77095244194054

AllMySatでCOSMOS 1428をリアルタイム追跡

Download on the App Store